Flag for U.S.A. Weather past 2 weeks in New Haven, Connecticut, U.S.A.

Now
28 °F

Overcast.


Feels Like: 21 °F
Forecast: 20 / 35 °F
Wind: 7 mph from West

Location: Tweed-New Haven Airport

Current Time: Mar 2, 2015 at 3:17:36 AM

Latest Report: Mar 2, 2015 at 2:53 AM


Visibility: 10 mi

Pressure: 30.03 "Hg

Humidity: 85%

Dew point: 24 °F

Location of New HavenLocation

Historic Weather in New Haven — Graph

°F

New Haven temperature yesterday

Maximum temperature yesterday: 28 °F (at 6:53 PM)
Minimum temperature yesterday: 6 °F (at 2:53 AM)
Average temperature yesterday: 21 °F

Past Weeks' High & Low Weather Summary

 TemperatureHumidityPressure
High37 °F (Feb 22, 12:53 PM)100% (Feb 21, 9:53 PM)30.79 "Hg (Feb 21, 9:53 PM)
Low-2 °F (Feb 21, 4:53 AM)23% (Feb 16, 3:53 PM)29.40 "Hg (Feb 15, 1:53 AM)
Average19 °F61%30.13 "Hg
* Reported Feb 15 1:53 AM — Mar 2 1:53 AM, New Haven, Weather by CustomWeather, © 2015

Note: Actual official high and low records may vary slightly from our data, if they occured in-between our weather recording intervals... More about our weather records

Advertising

New Haven weather history for previous 24 hours

 ConditionsComfort  
Time TempWeatherWind HumidityBarometerVisibility
1:53 AM
Mon, Mar 2
28 °FMostly cloudy.5 mph85%30.06 "Hg10 mi
12:53 AM27 °FMostly cloudy.No wind92%30.10 "Hg9 mi
11:53 PM
Sun, Mar 1
27 °FOvercast.3 mph92%30.14 "Hg8 mi
10:53 PM27 °FLight snow. Ice fog.No wind96%30.18 "Hg2 mi
9:53 PM27 °FLight snow. Ice fog.No wind92%30.21 "Hg1 mi
8:53 PM28 °FLight snow. Ice fog.3 mph93%30.26 "Hg2 mi
7:53 PM28 °FLight snow. Ice fog.No wind93%30.29 "Hg1 mi
6:53 PM28 °FLight snow. Ice fog.No wind93%30.32 "Hg1 mi
5:53 PM27 °FLight snow. Ice fog.No wind89%30.35 "Hg1 mi
4:53 PM26 °FSnow. Ice fog.3 mph88%30.38 "Hg0 mi
4:01 PM25 °FSnow. Ice fog.5 mph88%30.42 "Hg0 mi
2:53 PM25 °FLight snow. Ice fog.5 mph81%30.46 "Hg1 mi
1:53 PM25 °FSnow. Overcast.No wind81%30.52 "Hg1 mi
12:53 PM24 °FLight snow. Ice fog.3 mph84%30.55 "Hg1 mi
11:53 AM26 °FOvercast.3 mph63%30.58 "Hg10 mi
10:53 AM26 °FMostly cloudy.No wind71%30.60 "Hg9 mi
9:53 AM25 °FMostly cloudy.No wind63%30.63 "Hg10 mi
8:53 AM24 °FOvercast.No wind55%30.64 "Hg10 mi
7:53 AM19 °FOvercast.No wind68%30.68 "Hg10 mi
6:53 AM15 °FOvercast.No wind74%30.68 "Hg10 mi
5:53 AM13 °FOvercast.No wind74%30.68 "Hg10 mi
4:53 AM9 °FClear.No wind80%30.68 "Hg9 mi
3:53 AM7 °FClear.No wind83%30.68 "Hg9 mi
Weather by CustomWeather, © 2015

See weather overviewHow to use our weather pages